Printer-friendly version

IAU Minor Planet Center

Minor Planet Center

MPEC 2005-V16 : COMET P/2005 R1 (NEAT)

The following Minor Planet Electronic Circular may be linked-to from your own Web pages, but must not otherwise be redistributed electronically.


Read MPEC 2005-V15 Read MPEC 2005-V17


M.P.E.C. 2005-V16                                Issued 2005 Nov. 3, 00:02 UT

     The Minor Planet Electronic Circulars contain information on unusual
         minor planets and routine data on comets.  They are published
   on behalf of Commission 20 of the International Astronomical Union by the
          Minor Planet Center, Smithsonian Astrophysical Observatory,
                          Cambridge, MA 02138, U.S.A.

                  Supported in part by the Brinson Foundation
                  Supported in part by the TABASGO Foundation
             Prepared using the Tamkin Foundation Computer Network

                              MPC@CFA.HARVARD.EDU
          URL http://cfa-www.harvard.edu/iau/mpc.html  ISSN 1523-6714

                            COMET P/2005 R1 (NEAT)

Observations:
    PK05R010  C2005 10 23.51877 00 29 26.34 +29 16 16.8                 EV016349
    PK05R010  C2005 10 23.52101 00 29 26.32 +29 16 15.3                 EV016349
    PK05R010  C2005 10 23.52321 00 29 26.33 +29 16 13.6          16.6 T EV016349
    PK05R010  C2005 10 26.82852 00 29 26.81 +28 37 06.0          17.7 T EV016215
    PK05R010  C2005 10 26.82888 00 29 26.83 +28 37 05.9          17.5 T EV016215
    PK05R010  C2005 10 26.82922 00 29 26.82 +28 37 05.7          17.5 T EV016215
    PK05R010  C2005 10 27.58413 00 29 28.80 +28 27 59.3                 EV016D70
    PK05R010  C2005 10 27.58836 00 29 28.86 +28 27 55.6                 EV016D70
    PK05R010  C2005 10 27.59100 00 29 28.92 +28 27 54.4          16.9 N EV016D70
    PK05R010  C2005 10 29.23262 00 29 36.56 +28 07 43.1          16.1 T EV016703
    PK05R010  C2005 10 29.24208 00 29 36.60 +28 07 37.7          16.2 T EV016703
    PK05R010  C2005 10 29.25156 00 29 36.74 +28 07 30.8          16.5 T EV016703
    PK05R010  C2005 10 29.26110 00 29 36.78 +28 07 23.1          16.6 T EV016703
    PK05R010  C2005 10 31.90139 00 29 58.09 +27 34 29.0          17.7 N EV016170
    PK05R010  C2005 10 31.91073 00 29 58.19 +27 34 21.7          17.4 N EV016170
    PK05R010  C2005 10 31.99072 00 29 58.77 +27 33 20.7          16.8 N EV016939
    PK05R010  C2005 10 31.99537 00 29 58.83 +27 33 17.2          16.8 N EV016939
    PK05R010  C2005 11 01.00001 00 29 58.90 +27 33 13.9          16.8 N EV016939
    PK05R010  C2005 11 01.21590 00 30 01.23 +27 30 31.9          17.4 N EV016649
    PK05R010  C2005 11 01.23239 00 30 01.36 +27 30 19.3          17.5 N EV016649
    PK05R010  C2005 11 01.28486 00 30 01.80 +27 29 39.3          17.4 N EV016649
    PK05R010  C2005 11 01.85720 00 30 08.58 +27 22 27.6          16.7 N EV016213
    PK05R010  C2005 11 01.85880 00 30 08.60 +27 22 26.4          16.8 N EV016213
    PK05R010  C2005 11 01.86039 00 30 08.61 +27 22 24.9          16.8 N EV016213

Observer details:
170 Observatorio de Begues.  Observer J. Manteca.  0.36-m f/10
    Schmidt-Cassegrain + CCD.
213 Observatorio Montcabre.  Observer R. Naves.  Measurer M. Campas.  0.30-m
    f/10 Schmidt-Cassegrain + CCD.
215 Buchloe.  Observer W. Hasubick.  0.44-m f/4.6 reflector + CCD.
349 Ageo.  Observer K. Kadota.  0.25-m f/5.0 reflector + CCD.
649 Powell Observatory, Louisburg.  Observers R. Fredrick, R. Trentman.
    0.75-m Newtonian reflector + CCD.
703 Catalina Sky Survey.  Observer R. A. Kowalski.  Measurers E. C. Beshore,
    E. J. Christensen, G. J. Garradd, A. D. Grauer, R. E. Hill, R. A. Kowalski,
    S. M. Larson, R. H. McNaught.  0.68-m Schmidt + CCD.
939 Observatorio Rodeno.  Observer J. Castellano.  0.20-m f/10
    Schmidt-Cassegrain + CCD.
D70 Tosa.  Observer S. Shimomoto.  0.20-m f/6.3 Schmidt-Cassegrain + CCD.

Orbital elements:
    P/2005 R1 (NEAT)
T 2005 Oct. 8.3708 TT                                   MPC
q   2.047019             (2000.0)            P               Q
n   0.0763480      Peri.  117.9295      +0.9251807      -0.2758642
a   5.503062       Node   259.0701      +0.1804570      +0.9239308
e   0.628022       Incl.   15.3948      +0.3338802      +0.2650487
P  12.9
From 224 observations 2005 Sept. 2-Nov. 1.

Brian G. Marsden             (C) Copyright 2005 MPC           M.P.E.C. 2005-V16

Read MPEC 2005-V15 Read MPEC 2005-V17


Our Web policy. Index to the CBAT/MPC/ICQ pages.


Valid HTML 4.01!